Location: Four Corners
(38.2757°N, 122.4608°W)
Time: 11:08:20
(UTC+00:00)

Cosmos 1844 - Pass Details

Date: 08 December 2019
Orbit: 824 x 866 km, 70.9° (Epoch: 25 January)

Event Time Altitude Azimuth Distance (km) Brightness Sun altitude
Rises 01:11:44 0° 336° (NNW) 3,421 6.9 -4.8°
Reaches altitude 10° 01:14:12 10° 336° (NNW) 2,475 6.2 -5.2°
Maximum altitude 01:19:53 82° 250° (WSW) 851 3.9 -6.2°
Drops below altitude 10° 01:25:28 10° 163° (SSE) 2,432 6.2 -7.2°
Sets 01:27:52 0° 162° (SSE) 3,357 6.9 -7.6°
